[[{"header":{"parameterUnit":"m.s-1","parameterCategory":1,"la1":30.2991,"la2":30.254,"lo1":-89.0895,"lo2":-89.0444,"dy":0.0017,"dx":0.0017,"nx":28,"ny":28,"refTime":"2025-07-08T21:00:00:Z","depth":0,"parameterNumber":2,"parameterNumberName":"U-component_of_WINDS"},"data":[0,0,0,0,0,0,0,0,0,0,0,0,0,0,0,0,0,0,0,0,0,0,0,0,0,0,0,0,0,0,0,0,0,0,0,0,0,0,0,0,0,0,0,0,0,0,0,0,0,0,0,0,0,0,0,0,0,0,3.5101,3.5102,0,3.516,3.5161,3.5161,3.5107,3.5105,3.5103,3.5101,3.5165,3.5168,3.5172,0,0,0,0,0,0,0,0,0,0,0,0,0,3.4944,3.4947,3.5101,3.5102,3.5102,3.516,3.5161,3.5161,3.5108,3.5105,3.5102,3.51,3.5164,3.5168,3.5172,0,0,0,0,0,0,0,0,0,0,0,0,0,3.5008,3.4948,3.5101,3.5082,3.5081,3.516,3.5161,3.5162,3.5108,3.5105,3.5102,3.5099,3.5162,3.5167,3.5173,3.5274,0,0,3.519,3.5193,0,0,0,0,0,0,0,0,3.5005,3.5014,3.5084,3.5084,3.5083,3.5123,3.5129,3.5199,3.5109,3.5098,3.5101,3.5097,3.5154,3.516,3.5178,3.5277,3.5279,3.5191,3.5194,3.5197,3.5198,0,0,0,0,0,0,0,3.5,3.5011,3.5124,3.5085,3.5084,3.5072,3.5077,3.5142,3.5144,3.5099,3.5095,3.5103,3.5153,3.5173,3.5179,3.528,3.5191,3.5196,3.5199,3.5201,3.5463,3.5466,0,0,0,0,0,0,3.4997,3.5008,3.5122,3.5126,3.5035,3.5077,3.5084,3.5113,3.5143,3.5144,3.5105,3.51,3.5165,3.5173,3.5181,3.5299,3.5197,3.5202,3.5205,3.5459,3.5464,3.5467,0,0,0,0,0,0,3.4994,3.5008,3.512,3.5066,3.5079,3.5084,3.5117,3.5116,3.5136,3.5148,3.5148,3.5125,3.5163,3.5173,3.525,3.5301,3.5204,3.5209,3.5455,3.5461,3.5465,3.5537,0,0,0,0,0,0,3.499,3.5007,3.5045,3.5067,3.5082,3.5188,3.5121,3.512,3.5146,3.5139,3.5167,3.5168,3.5161,3.5242,3.5256,3.5307,3.5214,3.545,3.5457,3.5464,3.553,3.5544,3.5556,0,0,0,0,0,3.4985,3.5064,3.5047,3.5061,3.5129,3.5191,3.5199,3.5188,3.515,3.5188,3.5195,3.5167,3.5294,3.5251,3.5266,3.5319,3.5447,3.5455,3.5463,3.5525,3.5542,3.5556,0,0,0,0,0,0,3.5049,3.5067,3.5048,3.5137,3.5163,3.5181,3.5229,3.5207,3.5245,3.5237,3.5223,3.523,3.5311,3.5323,3.5275,3.5417,3.5364,3.5376,3.5406,3.5422,3.5435,3.5429,3.5219,0,0,0,0,0,3.5073,3.5121,3.5134,3.5211,3.5225,3.5225,3.5251,3.524,3.5267,3.5278,3.529,3.5318,3.5363,3.5394,3.5437,3.5533,3.5537,3.5577,3.559,3.56,3.561,3.566,3.5677,3.5494,3.5494,3.5494,0,0,3.5125,3.514,3.5171,3.5225,3.5243,3.5293,3.5234,3.529,3.5326,3.5286,3.5359,3.537,3.5399,3.5486,3.5524,3.5498,3.5661,3.561,3.5619,3.5623,3.567,3.5687,3.5702,3.5499,3.5498,3.5497,0,0,3.5242,3.526,3.5325,3.5344,3.5372,3.5372,3.5388,3.541,3.5414,3.5487,3.5457,3.5502,3.5581,3.5602,3.5624,3.575,3.5725,3.5764,3.5832,3.5881,3.5895,3.5908,3.595,3.5966,3.5774,3.5774,3.5775,0,3.5303,3.5375,3.5361,3.5418,3.5442,3.5407,3.5473,3.5493,3.5534,3.5552,3.5522,3.5619,3.5637,3.5727,3.5758,3.5777,3.5794,3.576,3.5894,3.5906,3.5918,3.5959,3.5975,3.5779,3.5778,3.5778,3.5777,0,3.5447,3.5498,3.5547,3.5586,3.5616,3.5678,3.5673,3.5705,3.5692,3.5695,3.5769,3.5789,3.5834,3.5855,3.5844,3.5943,3.5926,3.5896,3.5842,3.594,3.5978,3.5994,3.5785,3.5784,3.5782,3.5781,0,0,3.5606,3.5636,3.5654,3.5671,3.5699,3.5738,3.5799,3.5841,3.5868,3.5899,3.5948,3.6015,3.5986,3.6011,3.6002,3.6045,3.6141,3.6009,3.6009,3.6031,3.625,3.6271,3.6289,3.6125,3.6128,3.613,3.6246,0,3.5723,3.5825,3.5814,3.5912,3.5958,3.5925,3.5977,3.6001,3.6005,3.6045,3.6051,3.6098,3.6058,3.6072,3.6113,3.612,3.6184,3.6112,3.617,3.6172,3.6161,3.6309,3.6332,3.6441,3.6262,3.6264,3.6266,0,3.5873,3.5907,3.6008,3.6028,3.6047,3.6094,3.6131,3.6171,3.6197,3.6197,3.6224,3.6206,3.6267,3.6213,3.6295,3.6246,3.627,3.6277,3.6281,3.6284,3.6223,3.6315,3.6475,3.6491,3.629,3.6288,3.6286,0,3.5977,3.6047,3.6117,3.6132,3.6158,3.6191,3.6204,3.6226,3.6252,3.6286,3.6302,3.6344,3.6366,3.6398,3.6392,3.6354,3.6476,3.6422,3.6477,3.6477,3.6502,3.65,3.6667,3.6521,3.6521,3.6521,3.652,0,3.6107,3.617,3.6163,3.6205,3.6275,3.6262,3.6332,3.634,3.636,3.6404,3.638,3.6421,3.6412,3.6454,3.6451,3.6518,3.6529,3.6531,3.6528,3.6531,3.6531,3.6545,3.6537,3.6525,3.6524,3.6523,3.6522,0,3.6234,3.6232,3.6304,3.6322,3.6328,3.6379,3.6394,3.6434,3.6436,3.6492,3.6504,3.6508,3.6556,3.6554,3.6609,3.6606,3.6689,3.6679,3.6679,3.6676,3.673,3.6724,3.691,3.6933,3.6775,3.6776,3.6777,0,3.6316,3.6363,3.6386,3.6413,3.6427,3.6471,3.6497,3.6487,3.6515,3.6547,3.6583,3.6629,3.6664,3.6742,3.6749,3.6791,3.6781,3.6843,3.6787,3.6788,3.6779,3.6775,3.6779,3.6853,3.6855,3.6857,3.6858,0,3.6462,3.6458,3.6496,3.6534,3.6565,3.6594,3.6621,3.6645,3.6638,3.6671,3.6718,3.6745,3.68,3.6845,3.6884,3.6898,3.6876,3.6876,3.689,3.6892,3.6889,3.6889,3.6707,3.6871,3.687,3.6869,3.6868,3.6867,3.6567,3.6607,3.6628,3.6671,3.669,3.6716,3.6753,3.676,3.6799,3.6842,3.6834,3.6887,3.6911,3.6961,3.6978,3.702,3.6998,3.7019,3.7024,3.7029,3.7034,3.6885,3.7027,3.7027,3.7027,3.7026,3.7026,0,3.671,3.6722,3.6761,3.6799,3.6832,3.6809,3.6837,3.6867,3.6913,3.6937,3.6972,3.7026,3.7069,3.708,3.7122,3.7153,3.7144,3.7164,3.716,3.7163,3.7053,3.7035,3.717,3.717,3.717,3.717,3.717,3.717,3.6788,3.6853,3.6852,3.6926,3.6938,3.6989,3.7007,3.703,3.7048,3.7109,3.7144,3.7151,3.717,3.7212,3.725,3.7253,3.7268,3.7292,3.729,3.7186,3.7171,3.7157,3.714,3.7296,3.7296,3.7397,3.7397,3.7398]},{"header":{"parameterUnit":"m.s-1","parameterCategory":1,"la1":30.2991,"la2":30.254,"lo1":-89.0895,"lo2":-89.0444,"dy":0.0017,"dx":0.0017,"nx":28,"ny":28,"refTime":"2025-07-08T21:00:00:Z","depth":0,"parameterNumber":3,"parameterNumberName":"V-component_of_WINDS"},"data":[0,0,0,0,0,0,0,0,0,0,0,0,0,0,0,0,0,0,0,0,0,0,0,0,0,0,0,0,0,0,0,0,0,0,0,0,0,0,0,0,0,0,0,0,0,0,0,0,0,0,0,0,0,0,0,0,0,0,3.5177,3.5179,0,3.5306,3.5308,3.5309,3.534,3.5339,3.5339,3.5338,3.5462,3.5466,3.547,0,0,0,0,0,0,0,0,0,0,0,0,0,3.4949,3.4953,3.5177,3.5179,3.518,3.5306,3.5308,3.5309,3.534,3.5339,3.5338,3.5337,3.5461,3.5466,3.5471,0,0,0,0,0,0,0,0,0,0,0,0,0,3.506,3.4955,3.5177,3.5211,3.5216,3.5306,3.5308,3.531,3.5341,3.5339,3.5338,3.5337,3.5459,3.5465,3.5471,3.5534,0,0,3.549,3.5493,0,0,0,0,0,0,0,0,3.5054,3.5068,3.5204,3.5209,3.5214,3.5306,3.5273,3.5385,3.5341,3.5293,3.5338,3.5336,3.5411,3.5421,3.5447,3.554,3.5545,3.5491,3.5494,3.5497,3.5499,0,0,0,0,0,0,0,3.5046,3.5063,3.5228,3.5206,3.5212,3.5217,3.5232,3.5294,3.5357,3.5297,3.53,3.5315,3.5413,3.5441,3.5451,3.5547,3.549,3.5496,3.55,3.5502,3.5695,3.5696,0,0,0,0,0,0,3.5033,3.5056,3.5224,3.5232,3.5129,3.5222,3.5239,3.5278,3.5356,3.5367,3.5316,3.5316,3.5432,3.5443,3.5455,3.5533,3.5497,3.5503,3.5506,3.5693,3.5695,3.5697,0,0,0,0,0,0,3.5028,3.5048,3.5219,3.5145,3.5167,3.5228,3.5271,3.5281,3.5309,3.5371,3.5381,3.5334,3.5431,3.5446,3.5514,3.5537,3.5505,3.5511,3.5692,3.5694,3.5696,3.5689,0,0,0,0,0,0,3.5022,3.5046,3.5073,3.5145,3.5171,3.5278,3.5273,3.5284,3.5321,3.5322,3.5391,3.5401,3.5431,3.5505,3.552,3.5545,3.5516,3.569,3.5693,3.5695,3.5687,3.569,3.5693,0,0,0,0,0,3.5014,3.5064,3.5074,3.5094,3.5206,3.528,3.5294,3.5331,3.5323,3.5348,3.5387,3.5398,3.5532,3.5512,3.5529,3.5556,3.5689,3.5692,3.5695,3.5686,3.569,3.5693,0,0,0,0,0,0,3.499,3.5074,3.5086,3.5163,3.5214,3.5285,3.5319,3.5334,3.5387,3.5385,3.5426,3.5441,3.5506,3.5538,3.5513,3.562,3.561,3.5617,3.5597,3.5601,3.5604,3.5594,3.5521,0,0,0,0,0,3.4995,3.505,3.512,3.518,3.5205,3.5257,3.5291,3.5315,3.5369,3.539,3.5434,3.5483,3.5537,3.5571,3.5623,3.5692,3.5706,3.5719,3.5722,3.5724,3.5729,3.5766,3.5772,3.5707,3.5707,3.5707,0,0,3.5003,3.5056,3.5088,3.5177,3.5219,3.5273,3.5275,3.5333,3.5372,3.5398,3.5465,3.5499,3.5556,3.5625,3.5657,3.5653,3.575,3.5728,3.5729,3.5734,3.577,3.5776,3.5781,3.571,3.5709,3.5709,0,0,3.5046,3.5092,3.5147,3.519,3.5256,3.529,3.5303,3.5372,3.5396,3.5464,3.5484,3.553,3.5621,3.5661,3.5693,3.575,3.5761,3.5766,3.5781,3.5816,3.5821,3.5826,3.5845,3.5851,3.5771,3.5771,3.5771,0,3.5047,3.5132,3.5173,3.523,3.5267,3.5294,3.5349,3.5387,3.5465,3.5489,3.5485,3.5599,3.564,3.5717,3.5731,3.5756,3.577,3.5758,3.5818,3.5823,3.5828,3.5846,3.5853,3.5771,3.5771,3.5771,3.5771,0,3.513,3.5188,3.5224,3.5301,3.5342,3.5397,3.5443,3.548,3.5499,3.5533,3.5601,3.5651,3.5713,3.5733,3.5752,3.5812,3.5808,3.581,3.5801,3.5833,3.5851,3.5858,3.5771,3.5771,3.5771,3.5771,0,0,3.5162,3.5261,3.5273,3.5308,3.5381,3.5426,3.548,3.5544,3.5573,3.5625,3.5671,3.5747,3.5749,3.5786,3.5809,3.584,3.588,3.5839,3.584,3.5843,3.5947,3.5944,3.5952,3.5888,3.589,3.5891,3.5942,0,3.5213,3.5315,3.5353,3.5435,3.5488,3.5514,3.5561,3.561,3.5642,3.569,3.5724,3.5777,3.5777,3.5799,3.5831,3.5868,3.5901,3.5865,3.5928,3.593,3.5912,3.5961,3.5959,3.6005,3.5949,3.595,3.5951,0,3.5286,3.5342,3.543,3.5496,3.552,3.5562,3.5622,3.5668,3.5722,3.5743,3.5784,3.5805,3.586,3.5848,3.5923,3.5898,3.5926,3.5947,3.595,3.5956,3.5942,3.5968,3.602,3.6027,3.5962,3.5962,3.5961,0,3.5299,3.5395,3.5461,3.5489,3.5568,3.5597,3.5631,3.5685,3.572,3.5771,3.5794,3.585,3.5881,3.5922,3.5957,3.5945,3.6028,3.6019,3.6045,3.6044,3.6061,3.6059,3.6118,3.608,3.608,3.608,3.608,0,3.5351,3.5404,3.5467,3.5507,3.5566,3.5607,3.5663,3.5698,3.5745,3.579,3.5815,3.5856,3.5901,3.5946,3.5974,3.603,3.6044,3.6061,3.6067,3.6058,3.6056,3.6076,3.6073,3.6082,3.6082,3.6081,3.6081,0,3.5375,3.542,3.5493,3.5562,3.558,3.562,3.5678,3.5716,3.575,3.5806,3.5821,3.5873,3.5928,3.5968,3.6038,3.6056,3.6117,3.6123,3.6099,3.6102,3.6126,3.6122,3.6198,3.6209,3.6165,3.6166,3.6166,0,3.5405,3.5447,3.5521,3.5554,3.5588,3.5641,3.5678,3.5719,3.5755,3.582,3.5849,3.5907,3.5955,3.6041,3.6083,3.6137,3.6144,3.6167,3.6152,3.6141,3.6143,3.614,3.6143,3.6169,3.6169,3.6169,3.6169,0,3.5453,3.5473,3.5527,3.5587,3.5631,3.568,3.5729,3.5753,3.5803,3.5842,3.59,3.5937,3.601,3.6066,3.6123,3.6155,3.6169,3.6174,3.6182,3.6173,3.6157,3.6165,3.6104,3.6172,3.6171,3.6171,3.6171,3.6171,3.548,3.5518,3.5576,3.5634,3.5675,3.572,3.576,3.5799,3.5849,3.5913,3.5933,3.5993,3.6044,3.6123,3.6155,3.62,3.6199,3.6212,3.6215,3.6217,3.6216,3.6151,3.6211,3.6211,3.6211,3.6211,3.6211,0,3.5529,3.5567,3.562,3.5689,3.5734,3.5747,3.5801,3.5837,3.589,3.5938,3.5985,3.6051,3.6105,3.6151,3.6206,3.6233,3.6241,3.6246,3.6244,3.625,3.6215,3.6201,3.6239,3.6239,3.6239,3.6239,3.6239,3.6239,3.5559,3.5623,3.5649,3.5733,3.5771,3.5831,3.5861,3.5902,3.594,3.6013,3.6059,3.609,3.6137,3.6195,3.6244,3.6256,3.6275,3.6278,3.6291,3.6256,3.6253,3.625,3.6238,3.6282,3.6282,3.6323,3.6323,3.6324]}]]